Location: Unspecified
(50.2830°N, 0.0000°E)
Time: 16:51:37
(UTC+00:00)

OPS 4078 - Visible Passes

Search period start: 04 April 2026 00:00
Search period end: 14 April 2026 00:00
Orbit: 777 x 819 km, 98.6° (Epoch: 29 March)

Date Brightness Start Highest point End Pass type
(mag) Time Alt. Az. Time Alt. Az. Time Alt. Az.
4 Apr 8.6 01:09:07 43° NNW 01:09:07 43° NNW 01:12:37 10° NNW visible
4 Apr 9.9 02:49:59 11° WNW 02:49:59 11° WNW 02:50:19 10° WNW visible
4 Apr 10.0 23:00:28 13° ENE 23:01:18 13° NE 23:03:42 10° NNE visible
5 Apr 8.5 00:41:20 47° NNE 00:41:20 47° NNE 00:45:14 10° N visible
5 Apr 9.5 02:22:13 18° WNW 02:22:13 18° WNW 02:24:10 10° NW visible
6 Apr 8.8 00:13:34 37° NE 00:13:34 37° NE 00:17:42 10° N visible
6 Apr 9.0 01:54:26 27° NW 01:54:26 27° NW 01:57:21 10° NNW visible
6 Apr 9.2 23:45:48 26° ENE 23:45:48 26° ENE 23:50:00 10° N visible
7 Apr 8.5 01:26:40 41° NW 01:26:40 41° NW 01:30:15 10° NNW visible
7 Apr 9.7 23:18:02 17° ENE 23:18:43 17° NE 23:22:03 10° NNE visible
8 Apr 8.2 00:58:54 54° N 00:58:54 54° N 01:02:58 10° NNW visible
8 Apr 9.6 02:39:47 14° WNW 02:39:47 14° WNW 02:41:13 10° NW visible
8 Apr 10.1 22:50:18 10° ENE 22:51:50 11° NE 22:53:23 10° NNE visible
9 Apr 8.3 00:31:08 49° NE 00:31:08 49° NE 00:35:32 10° N visible
9 Apr 9.1 02:12:00 22° WNW 02:12:00 22° WNW 02:14:45 10° NW visible
10 Apr 8.8 00:03:21 34° ENE 00:03:21 34° ENE 00:07:57 10° N visible
10 Apr 8.6 01:44:13 35° WNW 01:44:13 35° WNW 01:47:48 10° NNW visible
10 Apr 9.4 23:35:35 22° ENE 23:36:11 22° ENE 23:40:10 10° N visible
11 Apr 8.0 01:16:27 54° NW 01:16:27 54° NW 01:20:38 10° NNW visible
11 Apr 9.8 02:57:20 10° WNW 02:57:20 10° WNW 02:57:32 10° WNW visible
11 Apr 9.8 23:07:49 13° ENE 23:09:13 15° NE 23:12:03 10° NNE visible
12 Apr 7.9 00:48:41 64° NNE 00:48:41 64° NNE 00:53:17 10° NNW visible
12 Apr 9.3 02:29:34 18° WNW 02:29:34 18° WNW 02:31:56 10° NW visible
13 Apr 8.4 00:20:55 45° ENE 00:20:55 45° ENE 00:25:48 10° N visible
13 Apr 8.8 02:01:47 28° WNW 02:01:47 28° WNW 02:05:15 10° NNW visible
13 Apr 9.0 23:53:08 29° ENE 23:53:41 29° ENE 23:58:08 10° N visible
